Hourly Data Report for October 20, 2004

SHERBROOKE A
QUEBEC

45°26'00.000" N
71°41'00.000" W
241.40 m
7028124
71610
YSC

Download Data

Hourly Data (October 2004)
Hourly Data Report for October 20, 2004
TIME
LST
Temp Definition
°C
Dew Point Definition
°C
Rel Hum Definition
%
Precip. Amount Definition
mm

Wind Dir Definition
10's deg

Wind Spd Definition
km/h
Visibility Definition
km
Stn Press Definition
kPa
Hmdx Definition


Wind Chill Definition


Weather Definition


00:00 0.6 -1.3 87   8 9 15.0 99.63      
01:00 0.3 -2.0 85   7 13 15.0 99.63      
02:00 0.0 -2.4 84   7 11 15.0 99.60   -4  
03:00 -0.2 -2.7 83   6 9 15.0 99.58   -3  
04:00 -1.0 -3.1 86   8 9 15.0 99.60   -4  
05:00 -0.6 -2.8 85   6 11 15.0 99.63   -4  
06:00 -1.5 -3.3 88   8 9 15.0 99.65   -5  
07:00 -0.3 -2.5 85   7 11 24.1 99.67   -4 Mainly Clear
08:00 2.1 -1.3 78   7 11 24.1 99.67     Mainly Clear
09:00 3.5 -1.1 72   6 9 24.1 99.66     Mainly Clear
10:00 5.8 0.3 68   8 6 24.1 99.62     Mainly Clear
11:00 7.9 0.8 61   5 9 24.1 99.58     Mainly Clear
12:00 8.9 -1.3 49   7 7 24.1 99.50     Mainly Clear
13:00 10.2 -1.1 45   2 15 24.1 99.42     Mainly Clear
14:00 10.7 -2.1 41   2 13 24.1 99.34     Mainly Clear
15:00 10.7 -2.8 39   3 11 24.1 99.31     Mainly Clear
16:00 9.2 -1.7 46   3 11 24.1 99.33     Mainly Clear
17:00 6.5 -1.3 57   4 11 15.0 99.34      
18:00 5.4 -1.9 59   5 13 15.0 99.35      
19:00 4.4 -2.4 61   6 11 15.0 99.35      
20:00 3.0 -2.7 66   7 9 15.0 99.35      
21:00 2.3 -3.0 68   7 11 15.0 99.37      
22:00 0.9 -3.0 75   8 7 15.0 99.39      
23:00 0.2 -2.8 80   8 9 15.0 99.41      

Notes on Data Quality.

Legend

  • E = Estimated
  • M = Missing
  • NA = Not Available*
  • [empty] = Indicates an unobserved value
Date modified: